Location: Unspecified
(0.0000°N, 0.0000°E)
Time: 10:53:11
(UTC+00:00)

Hubble Space Telescope - Pass Details

Date: 22 March 2019
Orbit: 537 x 540 km, 28.5° (Epoch: 23 March)

Event Time Altitude Azimuth Distance (km) Brightness Sun altitude
Exits shadow 03:41:16 10° 70° (ENE) 1,754 4.1 -36.5°
Drops below altitude 10° 03:41:24 10° 71° (ENE) 1,785 4.1 -36.4°
Sets 03:44:14 0° 91° (E) 2,670 5.3 -35.7°
